User: anonymous   Login
Location: Chuathbaluk
(61.5726°N, 159.2454°W)
Time: 00:44:20
(UTC+00:00)
Language:

EO-79 - Orbit

View from above orbital plane
View from above orbital plane
View from above satellite
View from above satellite

Ground track
Ground track

The orbit data is extracted from the following two-line orbital elements,

1 40025U 14033R   21023.77362738  .00000267  00000-0  34132-4 0  9995
2 40025  97.9265 314.1607 0011175 298.2201  61.7887 14.89310816358398
Epoch (UTC): 23 January 2021 18:34:01
Eccentricity: 0.0011175
inclination: 97.9265°
perigee height: 592 km
apogee height: 608 km
right ascension of ascending node: 314.1607°
argument of perigee: 298.2201°
revolutions per day: 14.89310816
mean anomaly at epoch: 61.7887°
orbit number at epoch: 35839

The dashed part of the orbit path shows where the satellite is in the earth's shadow,  

DLR